Time,TemperatureF,DewpointF,PressureIn,WindDirection,WindDirectionDegrees,WindSpeedMPH,WindSpeedGustMPH,Humidity,HourlyPrecipIn,Conditions,Clouds,dailyrainin,SoftwareType,DateUTC
2013-10-24 00:01:00,41.4,32.7,30.03,WNW,292,0.0,0.0,71,0.00,CLR,,0.00,WeatherDisplay:10.37,2013-10-24 04:01:00,
2013-10-24 00:02:00,41.4,32.7,30.03,WNW,292,0.0,0.0,71,0.00,CLR,,0.00,WeatherDisplay:10.37,2013-10-24 04:02:00,
2013-10-24 00:07:00,41.4,32.7,30.04,SW,225,0.0,0.0,71,0.00,CLR,,0.00,WeatherDisplay:10.37,2013-10-24 04:07:00,
2013-10-24 00:12:00,41.4,32.3,30.04,NNE,22,0.0,0.0,70,0.00,CLR,,0.00,WeatherDisplay:10.37,2013-10-24 04:12:00,
2013-10-24 00:17:00,41.2,32.5,30.05,NNE,22,0.0,0.0,71,0.00,CLR,,0.00,WeatherDisplay:10.37,2013-10-24 04:17:00,
2013-10-24 00:22:00,41.2,32.5,30.05,NNE,22,0.0,0.0,71,0.00,CLR,,0.00,WeatherDisplay:10.37,2013-10-24 04:22:00,
2013-10-24 00:27:00,41.2,32.8,30.05,NNE,22,0.0,0.0,72,0.00,CLR,,0.00,WeatherDisplay:10.37,2013-10-24 04:27:00,
2013-10-24 00:32:00,41.2,32.8,30.05,NNE,22,0.0,0.0,72,0.00,CLR,,0.00,WeatherDisplay:10.37,2013-10-24 04:32:00,
2013-10-24 00:37:00,41.0,32.7,30.05,North,0,0.0,0.0,72,0.00,CLR,,0.00,WeatherDisplay:10.37,2013-10-24 04:37:00,
2013-10-24 00:42:00,40.8,32.8,30.06,North,0,0.0,0.0,73,0.00,CLR,,0.00,WeatherDisplay:10.37,2013-10-24 04:42:00,
2013-10-24 00:47:00,40.8,32.8,30.06,North,0,0.0,0.0,73,0.00,CLR,,0.00,WeatherDisplay:10.37,2013-10-24 04:47:00,
2013-10-24 00:52:00,40.5,32.1,30.06,North,0,0.0,0.0,72,0.00,CLR,,0.00,WeatherDisplay:10.37,2013-10-24 04:52:00,
2013-10-24 00:57:00,39.9,32.0,30.07,North,0,0.0,0.0,73,0.00,CLR,,0.00,WeatherDisplay:10.37,2013-10-24 04:57:00,
2013-10-24 01:02:00,39.6,31.6,30.07,North,0,0.0,0.0,73,0.00,CLR,,0.00,WeatherDisplay:10.37,2013-10-24 05:02:00,
2013-10-24 01:07:00,39.4,31.8,30.06,North,0,0.0,0.0,74,0.00,CLR,,0.00,WeatherDisplay:10.37,2013-10-24 05:07:00,
2013-10-24 01:13:00,39.4,31.8,30.06,North,0,0.0,0.0,74,0.00,CLR,,0.00,WeatherDisplay:10.37,2013-10-24 05:13:00,
2013-10-24 01:18:00,39.4,31.8,30.06,North,0,0.0,0.0,74,0.00,CLR,,0.00,WeatherDisplay:10.37,2013-10-24 05:18:00,
2013-10-24 01:23:00,39.0,31.4,30.06,North,0,0.0,0.0,74,0.00,CLR,,0.00,WeatherDisplay:10.37,2013-10-24 05:23:00,
2013-10-24 01:28:00,39.0,31.8,30.06,North,0,0.0,0.0,75,0.00,CLR,,0.00,WeatherDisplay:10.37,2013-10-24 05:28:00,
2013-10-24 01:33:00,39.0,32.1,30.07,North,0,0.0,0.0,76,0.00,CLR,,0.00,WeatherDisplay:10.37,2013-10-24 05:33:00,
2013-10-24 01:38:00,38.8,31.9,30.07,North,0,0.0,0.0,76,0.00,CLR,,0.00,WeatherDisplay:10.37,2013-10-24 05:38:00,
2013-10-24 01:43:00,38.8,31.9,30.07,North,0,0.0,0.0,76,0.00,CLR,,0.00,WeatherDisplay:10.37,2013-10-24 05:43:00,
2013-10-24 01:48:00,38.5,31.6,30.08,North,0,0.0,0.0,76,0.00,CLR,,0.00,WeatherDisplay:10.37,2013-10-24 05:48:00,
2013-10-24 01:53:00,38.5,31.6,30.08,North,0,0.0,0.0,76,0.00,CLR,,0.00,WeatherDisplay:10.37,2013-10-24 05:53:00,
2013-10-24 01:58:00,38.3,31.4,30.08,North,0,0.0,0.0,76,0.00,CLR,,0.00,WeatherDisplay:10.37,2013-10-24 05:58:00,
2013-10-24 02:03:00,38.1,31.5,30.08,North,0,0.0,0.0,77,0.00,CLR,,0.00,WeatherDisplay:10.37,2013-10-24 06:03:00,
2013-10-24 02:08:00,38.3,32.0,30.07,North,0,0.0,0.0,78,0.00,CLR,,0.00,WeatherDisplay:10.37,2013-10-24 06:08:00,
2013-10-24 02:13:00,38.1,31.5,30.07,North,0,0.0,0.0,77,0.00,CLR,,0.00,WeatherDisplay:10.37,2013-10-24 06:13:00,
2013-10-24 02:18:00,38.1,31.5,30.06,North,0,0.0,0.0,77,0.00,CLR,,0.00,WeatherDisplay:10.37,2013-10-24 06:18:00,
2013-10-24 02:23:00,37.9,31.7,30.06,North,0,0.0,0.0,78,0.00,CLR,,0.00,WeatherDisplay:10.37,2013-10-24 06:23:00,
2013-10-24 02:29:00,37.8,31.5,30.06,North,0,0.0,0.0,78,0.00,CLR,,0.00,WeatherDisplay:10.37,2013-10-24 06:29:00,
2013-10-24 02:34:00,37.8,31.5,30.06,North,0,0.0,0.0,78,0.00,CLR,,0.00,WeatherDisplay:10.37,2013-10-24 06:34:00,
2013-10-24 02:39:00,37.8,31.5,30.07,North,0,0.0,0.0,78,0.00,CLR,,0.00,WeatherDisplay:10.37,2013-10-24 06:39:00,
2013-10-24 02:44:00,37.6,31.3,30.07,North,0,0.0,0.0,78,0.00,CLR,,0.00,WeatherDisplay:10.37,2013-10-24 06:44:00,
2013-10-24 02:49:00,37.2,31.0,30.07,North,0,0.0,0.0,78,0.00,CLR,,0.00,WeatherDisplay:10.37,2013-10-24 06:49:00,
2013-10-24 02:54:00,37.0,30.8,30.07,North,0,0.0,0.0,78,0.00,CLR,,0.00,WeatherDisplay:10.37,2013-10-24 06:54:00,
2013-10-24 02:59:00,37.0,31.1,30.07,North,0,0.0,0.0,79,0.00,CLR,,0.00,WeatherDisplay:10.37,2013-10-24 06:59:00,
2013-10-24 03:04:00,37.0,31.1,30.08,North,0,0.0,0.0,79,0.00,BKN,,0.00,WeatherDisplay:10.37,2013-10-24 07:04:00,
2013-10-24 03:09:00,37.2,31.3,30.09,North,0,0.0,0.0,79,0.00,BKN,,0.00,WeatherDisplay:10.37,2013-10-24 07:09:00,
2013-10-24 03:14:00,37.0,31.1,30.09,North,0,0.0,0.0,79,0.00,BKN,,0.00,WeatherDisplay:10.37,2013-10-24 07:14:00,
2013-10-24 03:19:00,37.0,31.1,30.09,North,0,0.0,0.0,79,0.00,BKN,,0.00,WeatherDisplay:10.37,2013-10-24 07:19:00,
2013-10-24 03:24:00,36.7,30.8,30.09,North,0,0.0,0.0,79,0.00,BKN,,0.00,WeatherDisplay:10.37,2013-10-24 07:24:00,
2013-10-24 03:29:00,36.7,31.1,30.09,North,0,0.0,0.0,80,0.00,BKN,,0.00,WeatherDisplay:10.37,2013-10-24 07:29:00,
2013-10-24 03:34:00,36.7,31.1,30.09,North,0,0.0,0.0,80,0.00,BKN,,0.00,WeatherDisplay:10.37,2013-10-24 07:34:00,
2013-10-24 03:39:00,36.9,31.3,30.09,North,0,0.0,0.0,80,0.00,BKN,,0.00,WeatherDisplay:10.37,2013-10-24 07:39:00,
2013-10-24 03:45:00,37.0,31.4,30.08,North,0,0.0,0.0,80,0.00,BKN,,0.00,WeatherDisplay:10.37,2013-10-24 07:45:00,
2013-10-24 03:50:00,37.0,31.4,30.08,North,0,0.0,0.0,80,0.00,BKN,,0.00,WeatherDisplay:10.37,2013-10-24 07:50:00,
2013-10-24 03:55:00,37.0,31.4,30.08,North,0,0.0,0.0,80,0.00,BKN,,0.00,WeatherDisplay:10.37,2013-10-24 07:55:00,
2013-10-24 04:00:00,37.2,31.6,30.09,North,0,0.0,0.0,80,0.00,BKN,,0.00,WeatherDisplay:10.37,2013-10-24 08:00:00,
2013-10-24 04:05:00,37.2,31.6,30.09,North,0,0.0,0.0,80,0.00,OVC,,0.00,WeatherDisplay:10.37,2013-10-24 08:05:00,
2013-10-24 04:10:00,37.2,31.6,30.09,North,0,0.0,0.0,80,0.00,OVC,,0.00,WeatherDisplay:10.37,2013-10-24 08:10:00,
2013-10-24 04:15:00,37.2,31.6,30.09,North,0,0.0,0.0,80,0.00,OVC,,0.00,WeatherDisplay:10.37,2013-10-24 08:15:00,
2013-10-24 04:20:00,37.2,31.6,30.09,North,0,0.0,0.0,80,0.00,OVC,,0.00,WeatherDisplay:10.37,2013-10-24 08:20:00,
2013-10-24 04:25:00,37.2,31.9,30.09,North,0,0.0,0.0,81,0.00,OVC,,0.00,WeatherDisplay:10.37,2013-10-24 08:25:00,
2013-10-24 04:30:00,37.2,31.9,30.09,North,0,0.0,0.0,81,0.00,OVC,,0.00,WeatherDisplay:10.37,2013-10-24 08:30:00,
2013-10-24 04:35:00,37.4,32.1,30.09,North,0,0.0,0.0,81,0.00,OVC,,0.00,WeatherDisplay:10.37,2013-10-24 08:35:00,
2013-10-24 04:40:00,37.6,32.3,30.08,North,0,0.0,0.0,81,0.00,OVC,,0.00,WeatherDisplay:10.37,2013-10-24 08:40:00,
2013-10-24 04:45:00,37.6,32.3,30.08,North,0,0.0,0.0,81,0.00,OVC,,0.00,WeatherDisplay:10.37,2013-10-24 08:45:00,
2013-10-24 04:50:00,37.6,32.3,30.08,North,0,0.0,0.0,81,0.00,OVC,,0.00,WeatherDisplay:10.37,2013-10-24 08:50:00,
2013-10-24 04:55:00,37.8,32.8,30.09,North,0,0.0,0.0,82,0.00,OVC,,0.00,WeatherDisplay:10.37,2013-10-24 08:55:00,
2013-10-24 05:01:00,37.6,32.3,30.09,North,0,0.0,0.0,81,0.00,OVC,,0.00,WeatherDisplay:10.37,2013-10-24 09:01:00,
2013-10-24 05:06:00,37.4,32.1,30.09,North,0,0.0,0.0,81,0.00,BKN,,0.00,WeatherDisplay:10.37,2013-10-24 09:06:00,
2013-10-24 05:11:00,37.2,31.9,30.09,North,0,0.0,0.0,81,0.00,BKN,,0.00,WeatherDisplay:10.37,2013-10-24 09:11:00,
2013-10-24 05:16:00,37.2,31.9,30.09,North,0,0.0,0.0,81,0.00,BKN,,0.00,WeatherDisplay:10.37,2013-10-24 09:16:00,
2013-10-24 05:21:00,37.2,31.9,30.09,North,0,0.0,0.0,81,0.00,BKN,,0.00,WeatherDisplay:10.37,2013-10-24 09:21:00,
2013-10-24 05:26:00,37.2,32.2,30.09,North,0,0.0,0.0,82,0.00,BKN,,0.00,WeatherDisplay:10.37,2013-10-24 09:26:00,
2013-10-24 05:31:00,37.2,32.2,30.09,North,0,0.0,0.0,82,0.00,BKN,,0.00,WeatherDisplay:10.37,2013-10-24 09:31:00,
2013-10-24 05:36:00,37.0,31.8,30.10,North,0,0.0,0.0,81,0.00,BKN,,0.00,WeatherDisplay:10.37,2013-10-24 09:36:00,
2013-10-24 05:41:00,37.0,32.1,30.10,North,0,0.0,0.0,82,0.00,BKN,,0.00,WeatherDisplay:10.37,2013-10-24 09:41:00,
2013-10-24 05:46:00,36.9,31.9,30.10,North,0,0.0,0.0,82,0.00,BKN,,0.00,WeatherDisplay:10.37,2013-10-24 09:46:00,
2013-10-24 05:51:00,36.9,31.9,30.10,North,0,0.0,0.0,82,0.00,BKN,,0.00,WeatherDisplay:10.37,2013-10-24 09:51:00,
2013-10-24 05:56:00,36.7,31.4,30.10,North,0,0.0,0.0,81,0.00,BKN,,0.00,WeatherDisplay:10.37,2013-10-24 09:56:00,
2013-10-24 06:01:00,36.5,31.5,30.10,North,0,0.0,0.0,82,0.00,CLR,,0.00,WeatherDisplay:10.37,2013-10-24 10:01:00,
2013-10-24 06:06:00,36.5,31.5,30.10,North,0,0.0,0.0,82,0.00,CLR,,0.00,WeatherDisplay:10.37,2013-10-24 10:06:00,
2013-10-24 06:11:00,36.5,31.5,30.10,North,0,0.0,0.0,82,0.00,CLR,,0.00,WeatherDisplay:10.37,2013-10-24 10:11:00,
2013-10-24 06:17:00,36.3,31.4,30.11,North,0,0.0,0.0,82,0.00,CLR,,0.00,WeatherDisplay:10.37,2013-10-24 10:17:00,
2013-10-24 06:22:00,36.3,31.4,30.11,North,0,0.0,0.0,82,0.00,CLR,,0.00,WeatherDisplay:10.37,2013-10-24 10:22:00,
2013-10-24 06:27:00,36.3,31.4,30.10,North,0,0.0,0.0,82,0.00,CLR,,0.00,WeatherDisplay:10.37,2013-10-24 10:27:00,
2013-10-24 06:32:00,36.1,31.2,30.11,North,0,0.0,0.0,82,0.00,CLR,,0.00,WeatherDisplay:10.37,2013-10-24 10:32:00,
2013-10-24 06:37:00,36.1,31.2,30.11,North,0,0.0,0.0,82,0.00,CLR,,0.00,WeatherDisplay:10.37,2013-10-24 10:37:00,
2013-10-24 06:42:00,35.8,30.8,30.11,North,0,0.0,0.0,82,0.00,CLR,,0.00,WeatherDisplay:10.37,2013-10-24 10:42:00,
2013-10-24 06:47:00,35.4,30.5,30.11,North,0,0.0,0.0,82,0.00,CLR,,0.00,WeatherDisplay:10.37,2013-10-24 10:47:00,
2013-10-24 06:52:00,35.4,30.5,30.12,North,0,0.0,0.0,82,0.00,CLR,,0.00,WeatherDisplay:10.37,2013-10-24 10:52:00,
2013-10-24 06:57:00,35.2,30.3,30.12,North,0,0.0,0.0,82,0.00,CLR,,0.00,WeatherDisplay:10.37,2013-10-24 10:57:00,
2013-10-24 07:02:00,35.2,30.3,30.12,North,0,0.0,0.0,82,0.00,CLR,,0.00,WeatherDisplay:10.37,2013-10-24 11:02:00,
2013-10-24 07:07:00,35.2,30.3,30.12,North,0,0.0,0.0,82,0.00,CLR,,0.00,WeatherDisplay:10.37,2013-10-24 11:07:00,
2013-10-24 07:12:00,35.2,30.6,30.12,North,0,0.0,0.0,83,0.00,CLR,,0.00,WeatherDisplay:10.37,2013-10-24 11:12:00,
2013-10-24 07:17:00,35.2,30.6,30.12,North,0,0.0,0.0,83,0.00,CLR,,0.00,WeatherDisplay:10.37,2013-10-24 11:17:00,
2013-10-24 07:22:00,35.2,30.6,30.13,North,0,0.0,0.0,83,0.00,CLR,,0.00,WeatherDisplay:10.37,2013-10-24 11:22:00,
2013-10-24 07:27:00,35.2,30.6,30.13,North,0,0.0,0.0,83,0.00,CLR,,0.00,WeatherDisplay:10.37,2013-10-24 11:27:00,
2013-10-24 07:33:00,35.2,30.6,30.13,North,0,0.0,0.0,83,0.00,CLR,,0.00,WeatherDisplay:10.37,2013-10-24 11:33:00,
2013-10-24 07:38:00,35.2,30.6,30.13,North,0,0.0,0.0,83,0.00,CLR,,0.00,WeatherDisplay:10.37,2013-10-24 11:38:00,
2013-10-24 07:43:00,34.9,30.2,30.13,North,0,0.0,0.0,83,0.00,CLR,,0.00,WeatherDisplay:10.37,2013-10-24 11:43:00,
2013-10-24 07:48:00,34.9,30.2,30.13,North,0,0.0,0.0,83,0.00,CLR,,0.00,WeatherDisplay:10.37,2013-10-24 11:48:00,
2013-10-24 07:53:00,35.1,30.4,30.13,North,0,0.0,0.0,83,0.00,CLR,,0.00,WeatherDisplay:10.37,2013-10-24 11:53:00,
2013-10-24 07:58:00,35.1,30.4,30.14,North,0,0.0,0.0,83,0.00,CLR,,0.00,WeatherDisplay:10.37,2013-10-24 11:58:00,
2013-10-24 08:03:00,35.2,30.6,30.13,North,0,0.0,0.0,83,0.00,SCT,,0.00,WeatherDisplay:10.37,2013-10-24 12:03:00,
2013-10-24 08:08:00,34.9,30.2,30.14,North,0,0.0,0.0,83,0.00,SCT,,0.00,WeatherDisplay:10.37,2013-10-24 12:08:00,
2013-10-24 08:13:00,34.9,30.2,30.13,North,0,0.0,0.0,83,0.00,SCT,,0.00,WeatherDisplay:10.37,2013-10-24 12:13:00,
2013-10-24 08:18:00,34.7,30.1,30.14,North,0,0.0,0.0,83,0.00,SCT,,0.00,WeatherDisplay:10.37,2013-10-24 12:18:00,
2013-10-24 08:23:00,34.7,30.1,30.14,North,0,0.0,0.0,83,0.00,SCT,,0.00,WeatherDisplay:10.37,2013-10-24 12:23:00,
2013-10-24 08:28:00,34.5,29.9,30.14,North,0,0.0,0.0,83,0.00,SCT,,0.00,WeatherDisplay:10.37,2013-10-24 12:28:00,
2013-10-24 08:33:00,34.3,29.7,30.14,North,0,0.0,0.0,83,0.00,SCT,,0.00,WeatherDisplay:10.37,2013-10-24 12:33:00,
2013-10-24 08:38:00,34.3,29.7,30.14,North,0,0.0,0.0,83,0.00,SCT,,0.00,WeatherDisplay:10.37,2013-10-24 12:38:00,
2013-10-24 08:43:00,34.5,29.9,30.15,North,0,0.0,0.0,83,0.00,SCT,,0.00,WeatherDisplay:10.37,2013-10-24 12:43:00,
2013-10-24 08:49:00,34.7,30.4,30.14,North,0,0.0,0.0,84,0.00,SCT,,0.00,WeatherDisplay:10.37,2013-10-24 12:49:00,
2013-10-24 08:54:00,35.2,30.9,30.14,North,0,0.0,0.0,84,0.00,SCT,,0.00,WeatherDisplay:10.37,2013-10-24 12:54:00,
2013-10-24 08:59:00,35.4,31.1,30.14,ENE,68,0.0,0.0,84,0.00,SCT,,0.00,WeatherDisplay:10.37,2013-10-24 12:59:00,
2013-10-24 09:04:00,35.6,31.2,30.14,ENE,68,0.0,0.0,84,0.00,OVC,,0.00,WeatherDisplay:10.37,2013-10-24 13:04:00,
2013-10-24 09:09:00,35.8,31.4,30.13,ENE,68,0.0,0.0,84,0.00,OVC,,0.00,WeatherDisplay:10.37,2013-10-24 13:09:00,
2013-10-24 09:14:00,36.0,31.6,30.14,NE,45,0.0,0.0,84,0.00,OVC,,0.00,WeatherDisplay:10.37,2013-10-24 13:14:00,
2013-10-24 09:19:00,36.1,31.8,30.14,NE,45,0.0,0.0,84,0.00,OVC,,0.00,WeatherDisplay:10.37,2013-10-24 13:19:00,
2013-10-24 09:24:00,36.3,31.9,30.15,NE,45,0.0,0.0,84,0.00,OVC,,0.00,WeatherDisplay:10.37,2013-10-24 13:24:00,
2013-10-24 09:29:00,37.0,32.7,30.14,NNE,22,0.0,0.0,84,0.00,OVC,,0.00,WeatherDisplay:10.37,2013-10-24 13:29:00,
2013-10-24 09:34:00,37.4,33.0,30.14,ENE,68,0.0,0.0,84,0.00,OVC,,0.00,WeatherDisplay:10.37,2013-10-24 13:34:00,
2013-10-24 09:39:00,37.9,33.5,30.14,ENE,68,0.0,0.0,84,0.00,OVC,,0.00,WeatherDisplay:10.37,2013-10-24 13:39:00,
2013-10-24 09:44:00,38.3,33.9,30.15,ENE,68,0.0,0.0,84,0.00,OVC,,0.00,WeatherDisplay:10.37,2013-10-24 13:44:00,
2013-10-24 09:49:00,38.5,34.1,30.15,NW,315,0.0,0.0,84,0.00,OVC,,0.00,WeatherDisplay:10.37,2013-10-24 13:49:00,
2013-10-24 09:54:00,39.0,34.6,30.15,North,0,0.0,0.0,84,0.00,OVC,,0.00,WeatherDisplay:10.37,2013-10-24 13:54:00,
2013-10-24 09:59:00,39.0,34.3,30.15,North,0,0.0,0.0,83,0.00,OVC,,0.00,WeatherDisplay:10.37,2013-10-24 13:59:00,
2013-10-24 10:05:00,39.6,34.5,30.15,NNE,22,0.0,0.0,82,0.00,OVC,,0.00,WeatherDisplay:10.37,2013-10-24 14:05:00,
2013-10-24 10:10:00,39.9,35.2,30.15,NE,45,0.0,0.0,83,0.00,OVC,,0.00,WeatherDisplay:10.37,2013-10-24 14:10:00,
2013-10-24 10:15:00,40.1,35.0,30.14,NE,45,0.0,0.0,82,0.00,OVC,,0.00,WeatherDisplay:10.37,2013-10-24 14:15:00,
2013-10-24 10:20:00,40.5,35.4,30.15,ENE,68,0.0,0.0,82,0.00,OVC,,0.00,WeatherDisplay:10.37,2013-10-24 14:20:00,
2013-10-24 10:25:00,41.4,36.3,30.15,NNE,22,0.0,0.0,82,0.00,OVC,,0.00,WeatherDisplay:10.37,2013-10-24 14:25:00,
2013-10-24 10:30:00,41.9,36.8,30.14,NNE,22,0.0,0.0,82,0.00,OVC,,0.00,WeatherDisplay:10.37,2013-10-24 14:30:00,
2013-10-24 10:35:00,42.6,37.2,30.15,ENE,68,0.0,0.0,81,0.00,OVC,,0.00,WeatherDisplay:10.37,2013-10-24 14:35:00,
2013-10-24 10:40:00,43.0,37.2,30.14,ENE,68,0.0,0.0,80,0.00,OVC,,0.00,WeatherDisplay:10.37,2013-10-24 14:40:00,
2013-10-24 10:45:00,43.7,37.9,30.14,NNE,22,0.0,0.0,80,0.00,OVC,,0.00,WeatherDisplay:10.37,2013-10-24 14:45:00,
2013-10-24 10:50:00,44.2,38.1,30.14,NE,45,0.0,0.0,79,0.00,OVC,,0.00,WeatherDisplay:10.37,2013-10-24 14:50:00,
2013-10-24 10:55:00,45.0,38.5,30.14,ENE,68,0.0,0.0,78,0.00,OVC,,0.00,WeatherDisplay:10.37,2013-10-24 14:55:00,
2013-10-24 11:00:00,45.3,38.9,30.14,SSW,202,0.0,0.0,78,0.00,OVC,,0.00,WeatherDisplay:10.37,2013-10-24 15:00:00,
2013-10-24 11:05:00,46.0,38.9,30.14,NNE,22,0.0,0.0,76,0.00,BKN,,0.00,WeatherDisplay:10.37,2013-10-24 15:05:00,
2013-10-24 11:10:00,46.9,39.8,30.14,North,0,0.0,0.0,76,0.00,BKN,,0.00,WeatherDisplay:10.37,2013-10-24 15:10:00,
2013-10-24 11:15:00,47.3,39.4,30.13,WNW,292,0.0,0.0,74,0.00,BKN,,0.00,WeatherDisplay:10.37,2013-10-24 15:15:00,
2013-10-24 11:21:00,47.5,39.6,30.13,North,0,0.0,0.0,74,0.00,BKN,,0.00,WeatherDisplay:10.37,2013-10-24 15:21:00,
2013-10-24 11:26:00,48.0,40.1,30.13,NNW,338,0.0,0.0,74,0.00,BKN,,0.00,WeatherDisplay:10.37,2013-10-24 15:26:00,
2013-10-24 11:31:00,48.4,40.1,30.14,NNE,22,0.0,0.0,73,0.00,BKN,,0.00,WeatherDisplay:10.37,2013-10-24 15:31:00,
2013-10-24 11:36:00,48.7,40.1,30.13,NNE,22,0.0,0.0,72,0.00,BKN,,0.00,WeatherDisplay:10.37,2013-10-24 15:36:00,
2013-10-24 11:41:00,49.1,40.1,30.13,ENE,68,0.0,0.0,71,0.00,BKN,,0.00,WeatherDisplay:10.37,2013-10-24 15:41:00,
2013-10-24 11:46:00,49.3,39.9,30.12,ENE,68,0.0,0.0,70,0.00,BKN,,0.00,WeatherDisplay:10.37,2013-10-24 15:46:00,
2013-10-24 11:51:00,49.3,39.5,30.13,ENE,68,0.0,0.0,69,0.00,BKN,,0.00,WeatherDisplay:10.37,2013-10-24 15:51:00,
2013-10-24 11:56:00,49.1,39.4,30.12,ENE,68,0.0,0.0,69,0.00,BKN,,0.00,WeatherDisplay:10.37,2013-10-24 15:56:00,
2013-10-24 12:01:00,49.1,39.0,30.12,NNE,22,0.0,0.0,68,0.00,FEW,,0.00,WeatherDisplay:10.37,2013-10-24 16:01:00,
2013-10-24 12:06:00,49.3,39.2,30.12,ENE,68,0.0,0.0,68,0.00,FEW,,0.00,WeatherDisplay:10.37,2013-10-24 16:06:00,
2013-10-24 12:11:00,49.3,39.5,30.12,ENE,68,0.0,0.0,69,0.00,FEW,,0.00,WeatherDisplay:10.37,2013-10-24 16:11:00,
2013-10-24 12:16:00,49.8,40.4,30.12,NNE,22,0.0,0.0,70,0.00,FEW,,0.00,WeatherDisplay:10.37,2013-10-24 16:16:00,
2013-10-24 12:21:00,50.2,40.4,30.12,ENE,68,0.0,0.0,69,0.00,FEW,,0.00,WeatherDisplay:10.37,2013-10-24 16:21:00,
2013-10-24 12:26:00,50.5,40.4,30.12,North,0,0.0,0.0,68,0.00,FEW,,0.00,WeatherDisplay:10.37,2013-10-24 16:26:00,
2013-10-24 12:31:00,50.7,40.2,30.12,East,90,0.0,0.0,67,0.00,FEW,,0.00,WeatherDisplay:10.37,2013-10-24 16:31:00,
2013-10-24 12:37:00,51.3,40.7,30.11,ENE,68,0.0,0.0,67,0.00,FEW,,0.00,WeatherDisplay:10.37,2013-10-24 16:37:00,
2013-10-24 12:42:00,51.6,40.6,30.12,ENE,68,0.0,0.0,66,0.00,FEW,,0.00,WeatherDisplay:10.37,2013-10-24 16:42:00,
2013-10-24 12:47:00,52.0,40.6,30.11,NE,45,1.2,1.2,65,0.00,FEW,,0.00,WeatherDisplay:10.37,2013-10-24 16:47:00,
2013-10-24 12:52:00,52.3,41.3,30.11,NNE,22,2.3,2.3,66,0.00,FEW,,0.00,WeatherDisplay:10.37,2013-10-24 16:52:00,
2013-10-24 12:57:00,52.3,40.9,30.11,NW,315,2.3,2.3,65,0.00,FEW,,0.00,WeatherDisplay:10.37,2013-10-24 16:57:00,
2013-10-24 13:02:00,52.7,40.9,30.11,NNE,22,8.1,8.1,64,0.00,SCT,,0.00,WeatherDisplay:10.37,2013-10-24 17:02:00,
2013-10-24 13:07:00,52.9,41.0,30.11,SW,225,2.3,2.3,64,0.00,SCT,,0.00,WeatherDisplay:10.37,2013-10-24 17:07:00,
2013-10-24 13:12:00,53.4,41.5,30.10,SW,225,2.5,2.5,64,0.00,SCT,,0.00,WeatherDisplay:10.37,2013-10-24 17:12:00,
2013-10-24 13:17:00,54.0,41.2,30.09,SW,225,5.8,5.8,62,0.00,SCT,,0.00,WeatherDisplay:10.37,2013-10-24 17:17:00,
2013-10-24 13:22:00,54.1,41.4,30.09,WSW,248,0.0,0.0,62,0.00,SCT,,0.00,WeatherDisplay:10.37,2013-10-24 17:22:00,
2013-10-24 13:27:00,54.5,41.3,30.09,NNW,338,3.5,3.5,61,0.00,SCT,,0.00,WeatherDisplay:10.37,2013-10-24 17:27:00,
2013-10-24 13:32:00,54.5,41.3,30.09,SW,225,2.3,2.3,61,0.00,SCT,,0.00,WeatherDisplay:10.37,2013-10-24 17:32:00,
2013-10-24 13:37:00,54.9,41.7,30.09,SW,225,0.0,0.7,61,0.00,SCT,,0.00,WeatherDisplay:10.37,2013-10-24 17:37:00,
2013-10-24 13:42:00,55.0,41.4,30.09,SW,225,1.2,1.2,60,0.00,SCT,,0.00,WeatherDisplay:10.37,2013-10-24 17:42:00,
2013-10-24 13:47:00,55.2,42.0,30.09,WSW,248,1.8,1.8,61,0.00,SCT,,0.00,WeatherDisplay:10.37,2013-10-24 17:47:00,
2013-10-24 13:53:00,55.6,42.3,30.09,SSW,202,0.0,0.8,61,0.00,SCT,,0.00,WeatherDisplay:10.37,2013-10-24 17:53:00,
2013-10-24 13:58:00,55.6,41.9,30.09,North,0,0.0,0.0,60,0.00,SCT,,0.00,WeatherDisplay:10.37,2013-10-24 17:58:00,
2013-10-24 14:03:00,55.8,41.6,30.08,SSW,202,3.5,3.5,59,0.00,FEW,,0.00,WeatherDisplay:10.37,2013-10-24 18:03:00,
2013-10-24 14:08:00,55.9,41.8,30.09,West,270,1.2,1.2,59,0.00,FEW,,0.00,WeatherDisplay:10.37,2013-10-24 18:08:00,
2013-10-24 14:13:00,56.1,42.0,30.08,SSW,202,0.0,0.0,59,0.00,FEW,,0.00,WeatherDisplay:10.37,2013-10-24 18:13:00,
2013-10-24 14:18:00,56.3,42.1,30.08,NNW,338,1.2,1.2,59,0.00,FEW,,0.00,WeatherDisplay:10.37,2013-10-24 18:18:00,
2013-10-24 14:23:00,56.3,42.1,30.08,North,0,0.0,0.0,59,0.00,FEW,,0.00,WeatherDisplay:10.37,2013-10-24 18:23:00,
2013-10-24 14:28:00,56.5,41.9,30.08,NW,315,1.3,1.3,58,0.00,FEW,,0.00,WeatherDisplay:10.37,2013-10-24 18:28:00,
2013-10-24 14:33:00,56.5,42.3,30.08,SW,225,0.0,0.0,59,0.00,FEW,,0.00,WeatherDisplay:10.37,2013-10-24 18:33:00,
2013-10-24 14:38:00,56.5,41.9,30.07,SW,225,0.0,0.0,58,0.00,FEW,,0.00,WeatherDisplay:10.37,2013-10-24 18:38:00,
2013-10-24 14:43:00,56.3,41.7,30.07,West,270,1.2,0.0,58,0.00,FEW,,0.00,WeatherDisplay:10.37,2013-10-24 18:43:00,
2013-10-24 14:48:00,56.3,41.7,30.07,SW,225,0.0,0.0,58,0.00,FEW,,0.00,WeatherDisplay:10.37,2013-10-24 18:48:00,
2013-10-24 14:53:00,56.3,41.7,30.07,NNE,22,2.3,2.3,58,0.00,FEW,,0.00,WeatherDisplay:10.37,2013-10-24 18:53:00,
2013-10-24 14:58:00,56.5,41.9,30.07,NNE,22,1.2,0.0,58,0.00,FEW,,0.00,WeatherDisplay:10.37,2013-10-24 18:58:00,
2013-10-24 15:03:00,56.7,42.5,30.07,North,0,5.8,5.8,59,0.00,BKN,,0.00,WeatherDisplay:10.37,2013-10-24 19:03:00,
2013-10-24 15:09:00,56.8,42.2,30.07,SW,225,0.0,0.0,58,0.00,BKN,,0.00,WeatherDisplay:10.37,2013-10-24 19:09:00,
2013-10-24 15:14:00,57.0,41.9,30.07,NW,315,5.8,5.8,57,0.00,BKN,,0.00,WeatherDisplay:10.37,2013-10-24 19:14:00,
2013-10-24 15:19:00,57.0,41.9,30.07,SW,225,1.2,1.2,57,0.00,BKN,,0.00,WeatherDisplay:10.37,2013-10-24 19:19:00,
2013-10-24 15:24:00,57.0,41.5,30.07,SE,135,0.0,0.0,56,0.00,BKN,,0.00,WeatherDisplay:10.37,2013-10-24 19:24:00,
2013-10-24 15:29:00,57.0,41.0,30.07,NNE,22,2.3,2.3,55,0.00,BKN,,0.00,WeatherDisplay:10.37,2013-10-24 19:29:00,
2013-10-24 15:34:00,57.0,41.5,30.07,SW,225,0.0,0.0,56,0.00,BKN,,0.00,WeatherDisplay:10.37,2013-10-24 19:34:00,
2013-10-24 15:39:00,57.0,41.5,30.07,SE,135,0.0,0.0,56,0.00,BKN,,0.00,WeatherDisplay:10.37,2013-10-24 19:39:00,
2013-10-24 15:44:00,57.0,41.5,30.07,WSW,248,1.2,1.2,56,0.00,BKN,,0.00,WeatherDisplay:10.37,2013-10-24 19:44:00,
2013-10-24 15:49:00,57.0,41.5,30.08,WSW,248,2.7,2.7,56,0.00,BKN,,0.00,WeatherDisplay:10.37,2013-10-24 19:49:00,
2013-10-24 15:54:00,56.8,41.3,30.08,West,270,2.5,2.5,56,0.00,BKN,,0.00,WeatherDisplay:10.37,2013-10-24 19:54:00,
2013-10-24 15:59:00,56.8,41.3,30.08,SSW,202,0.0,0.3,56,0.00,BKN,,0.00,WeatherDisplay:10.37,2013-10-24 19:59:00,
2013-10-24 16:04:00,56.8,41.3,30.08,South,180,0.0,0.0,56,0.00,OVC,,0.00,WeatherDisplay:10.37,2013-10-24 20:04:00,
2013-10-24 16:09:00,56.7,40.7,30.07,NE,45,0.0,0.0,55,0.00,OVC,,0.00,WeatherDisplay:10.37,2013-10-24 20:09:00,
2013-10-24 16:15:00,56.5,40.5,30.07,SW,225,2.9,2.9,55,0.00,OVC,,0.00,WeatherDisplay:10.37,2013-10-24 20:15:00,
2013-10-24 16:20:00,56.3,40.8,30.08,NNW,338,1.2,0.0,56,0.00,OVC,,0.00,WeatherDisplay:10.37,2013-10-24 20:20:00,
2013-10-24 16:25:00,56.3,40.3,30.07,West,270,2.3,2.3,55,0.00,OVC,,0.00,WeatherDisplay:10.37,2013-10-24 20:25:00,
2013-10-24 16:30:00,56.1,40.6,30.07,East,90,5.8,5.8,56,0.00,OVC,,0.00,WeatherDisplay:10.37,2013-10-24 20:30:00,
2013-10-24 16:35:00,55.9,40.5,30.07,West,270,0.0,0.0,56,0.00,OVC,,0.00,WeatherDisplay:10.37,2013-10-24 20:35:00,
2013-10-24 16:40:00,55.9,40.0,30.07,West,270,2.3,0.0,55,0.00,OVC,,0.00,WeatherDisplay:10.37,2013-10-24 20:40:00,
2013-10-24 16:45:00,55.8,40.3,30.07,NW,315,1.6,1.6,56,0.00,OVC,,0.00,WeatherDisplay:10.37,2013-10-24 20:45:00,
2013-10-24 16:50:00,55.8,40.7,30.07,WSW,248,0.0,0.0,57,0.00,OVC,,0.00,WeatherDisplay:10.37,2013-10-24 20:50:00,
2013-10-24 16:55:00,55.8,40.7,30.08,SE,135,3.5,3.5,57,0.00,OVC,,0.00,WeatherDisplay:10.37,2013-10-24 20:55:00,
2013-10-24 17:00:00,55.6,39.7,30.08,WSW,248,4.6,4.6,55,0.00,OVC,,0.00,WeatherDisplay:10.37,2013-10-24 21:00:00,
2013-10-24 17:05:00,55.2,39.8,30.08,West,270,0.0,0.0,56,0.00,BKN,,0.00,WeatherDisplay:10.37,2013-10-24 21:05:00,
2013-10-24 17:11:00,55.2,39.8,30.08,SW,225,0.0,0.0,56,0.00,BKN,,0.00,WeatherDisplay:10.37,2013-10-24 21:11:00,
2013-10-24 17:16:00,55.0,39.6,30.08,WSW,248,2.3,2.3,56,0.00,BKN,,0.00,WeatherDisplay:10.37,2013-10-24 21:16:00,
2013-10-24 17:21:00,55.0,39.6,30.08,SW,225,0.0,0.0,56,0.00,BKN,,0.00,WeatherDisplay:10.37,2013-10-24 21:21:00,
2013-10-24 17:26:00,54.9,39.5,30.08,WSW,248,0.0,0.0,56,0.00,BKN,,0.00,WeatherDisplay:10.37,2013-10-24 21:26:00,
2013-10-24 17:31:00,54.7,39.7,30.08,NE,45,0.0,0.0,57,0.00,BKN,,0.00,WeatherDisplay:10.37,2013-10-24 21:31:00,
2013-10-24 17:36:00,54.7,39.3,30.08,SSW,202,8.1,8.1,56,0.00,BKN,,0.00,WeatherDisplay:10.37,2013-10-24 21:36:00,
2013-10-24 17:41:00,54.7,39.3,30.08,WSW,248,0.0,0.0,56,0.00,BKN,,0.00,WeatherDisplay:10.37,2013-10-24 21:41:00,
2013-10-24 17:46:00,54.7,39.3,30.08,NW,315,0.0,0.0,56,0.00,BKN,,0.00,WeatherDisplay:10.37,2013-10-24 21:46:00,
2013-10-24 17:51:00,54.5,39.1,30.08,NW,315,0.0,0.0,56,0.00,BKN,,0.00,WeatherDisplay:10.37,2013-10-24 21:51:00,
2013-10-24 17:56:00,54.3,38.9,30.08,NNW,338,0.0,0.0,56,0.00,BKN,,0.00,WeatherDisplay:10.37,2013-10-24 21:56:00,
2013-10-24 18:01:00,54.3,39.4,30.08,NNE,22,2.5,2.5,57,0.00,OVC,,0.00,WeatherDisplay:10.37,2013-10-24 22:01:00,
2013-10-24 18:06:00,54.1,39.2,30.09,SW,225,2.3,2.3,57,0.00,OVC,,0.00,WeatherDisplay:10.37,2013-10-24 22:06:00,
2013-10-24 18:11:00,53.8,38.9,30.09,NNE,22,4.6,4.6,57,0.00,OVC,,0.00,WeatherDisplay:10.37,2013-10-24 22:11:00,
2013-10-24 18:16:00,53.8,38.9,30.09,WNW,292,0.0,0.0,57,0.00,OVC,,0.00,WeatherDisplay:10.37,2013-10-24 22:16:00,
2013-10-24 18:21:00,53.6,38.7,30.09,West,270,0.0,0.0,57,0.00,OVC,,0.00,WeatherDisplay:10.37,2013-10-24 22:21:00,
2013-10-24 18:27:00,53.4,39.0,30.09,SW,225,0.0,0.0,58,0.00,OVC,,0.00,WeatherDisplay:10.37,2013-10-24 22:27:00,
2013-10-24 18:32:00,53.4,39.0,30.09,SW,225,0.0,0.0,58,0.00,OVC,,0.00,WeatherDisplay:10.37,2013-10-24 22:32:00,
2013-10-24 18:37:00,53.2,38.8,30.10,WSW,248,0.0,0.0,58,0.00,OVC,,0.00,WeatherDisplay:10.37,2013-10-24 22:37:00,
2013-10-24 18:42:00,53.2,39.3,30.10,South,180,0.0,0.0,59,0.00,OVC,,0.00,WeatherDisplay:10.37,2013-10-24 22:42:00,
2013-10-24 18:47:00,52.9,38.9,30.10,SSW,202,0.0,0.0,59,0.00,OVC,,0.00,WeatherDisplay:10.37,2013-10-24 22:47:00,
2013-10-24 18:52:00,52.7,39.2,30.10,ENE,68,0.0,0.0,60,0.00,OVC,,0.00,WeatherDisplay:10.37,2013-10-24 22:52:00,
2013-10-24 18:57:00,52.5,39.0,30.10,WSW,248,0.0,0.0,60,0.00,OVC,,0.00,WeatherDisplay:10.37,2013-10-24 22:57:00,
2013-10-24 19:02:00,52.3,38.9,30.10,ENE,68,0.0,0.0,60,0.00,BKN,,0.00,WeatherDisplay:10.37,2013-10-24 23:02:00,
2013-10-24 19:07:00,52.3,38.9,30.10,SSW,202,0.0,0.0,60,0.00,BKN,,0.00,WeatherDisplay:10.37,2013-10-24 23:07:00,
2013-10-24 19:12:00,52.3,38.9,30.11,WSW,248,0.0,0.0,60,0.00,BKN,,0.00,WeatherDisplay:10.37,2013-10-24 23:12:00,
2013-10-24 19:17:00,52.2,38.7,30.11,WNW,292,0.0,0.0,60,0.00,BKN,,0.00,WeatherDisplay:10.37,2013-10-24 23:17:00,
2013-10-24 19:22:00,52.0,38.9,30.11,SW,225,2.3,0.0,61,0.00,BKN,,0.00,WeatherDisplay:10.37,2013-10-24 23:22:00,
2013-10-24 19:27:00,51.6,38.6,30.11,SW,225,0.0,0.0,61,0.00,BKN,,0.00,WeatherDisplay:10.37,2013-10-24 23:27:00,
2013-10-24 19:32:00,51.6,38.6,30.12,West,270,0.0,0.0,61,0.00,BKN,,0.00,WeatherDisplay:10.37,2013-10-24 23:32:00,
2013-10-24 19:37:00,51.6,38.6,30.12,West,270,0.0,0.0,61,0.00,BKN,,0.00,WeatherDisplay:10.37,2013-10-24 23:37:00,
2013-10-24 19:43:00,51.6,38.6,30.12,West,270,0.0,0.0,61,0.00,BKN,,0.00,WeatherDisplay:10.37,2013-10-24 23:43:00,
2013-10-24 19:48:00,51.4,38.8,30.12,West,270,0.0,0.0,62,0.00,BKN,,0.00,WeatherDisplay:10.37,2013-10-24 23:48:00,
2013-10-24 19:53:00,51.4,38.8,30.12,North,0,0.0,0.0,62,0.00,BKN,,0.00,WeatherDisplay:10.37,2013-10-24 23:53:00,
2013-10-24 19:58:00,51.1,38.5,30.12,WSW,248,0.0,0.1,62,0.00,BKN,,0.00,WeatherDisplay:10.37,2013-10-24 23:58:00,
2013-10-24 20:03:00,50.9,38.7,30.12,WSW,248,0.0,0.0,63,0.00,OVC,,0.00,WeatherDisplay:10.37,2013-10-25 00:03:00,
2013-10-24 20:08:00,50.7,38.6,30.12,WSW,248,0.0,0.0,63,0.00,OVC,,0.00,WeatherDisplay:10.37,2013-10-25 00:08:00,
2013-10-24 20:13:00,50.7,38.6,30.13,West,270,0.0,0.0,63,0.00,OVC,,0.00,WeatherDisplay:10.37,2013-10-25 00:13:00,
2013-10-24 20:18:00,50.5,38.4,30.13,West,270,0.0,0.0,63,0.00,OVC,,0.00,WeatherDisplay:10.37,2013-10-25 00:18:00,
2013-10-24 20:23:00,50.5,38.8,30.13,NNW,338,1.2,1.2,64,0.00,OVC,,0.00,WeatherDisplay:10.37,2013-10-25 00:23:00,
2013-10-24 20:28:00,50.2,38.5,30.13,North,0,0.0,0.0,64,0.00,OVC,,0.00,WeatherDisplay:10.37,2013-10-25 00:28:00,
2013-10-24 20:33:00,50.0,38.3,30.13,North,0,1.3,0.0,64,0.00,OVC,,0.00,WeatherDisplay:10.37,2013-10-25 00:33:00,
2013-10-24 20:38:00,49.8,38.1,30.13,NE,45,0.0,0.0,64,0.00,OVC,,0.00,WeatherDisplay:10.37,2013-10-25 00:38:00,
2013-10-24 20:43:00,49.6,38.3,30.13,NNE,22,0.0,0.0,65,0.00,OVC,,0.00,WeatherDisplay:10.37,2013-10-25 00:43:00,
2013-10-24 20:48:00,49.3,37.6,30.13,NE,45,1.2,0.0,64,0.00,OVC,,0.00,WeatherDisplay:10.37,2013-10-25 00:48:00,
2013-10-24 20:53:00,49.1,37.8,30.13,NE,45,2.3,0.0,65,0.00,OVC,,0.00,WeatherDisplay:10.37,2013-10-25 00:53:00,
2013-10-24 20:59:00,48.7,37.5,30.13,NE,45,0.0,0.0,65,0.00,OVC,,0.00,WeatherDisplay:10.37,2013-10-25 00:59:00,
2013-10-24 21:04:00,48.7,37.9,30.13,NNE,22,0.0,0.0,66,0.00,OVC,,0.00,WeatherDisplay:10.37,2013-10-25 01:04:00,
2013-10-24 21:09:00,48.6,37.7,30.13,ENE,68,4.6,4.6,66,0.00,OVC,,0.00,WeatherDisplay:10.37,2013-10-25 01:09:00,
2013-10-24 21:14:00,48.4,37.9,30.14,NNW,338,0.0,0.0,67,0.00,OVC,,0.00,WeatherDisplay:10.37,2013-10-25 01:14:00,
2013-10-24 21:19:00,48.2,37.8,30.14,NE,45,1.2,1.2,67,0.00,OVC,,0.00,WeatherDisplay:10.37,2013-10-25 01:19:00,
2013-10-24 21:24:00,48.0,37.6,30.14,North,0,1.2,1.2,67,0.00,OVC,,0.00,WeatherDisplay:10.37,2013-10-25 01:24:00,
2013-10-24 21:29:00,47.8,37.8,30.14,North,0,0.0,0.0,68,0.00,OVC,,0.00,WeatherDisplay:10.37,2013-10-25 01:29:00,
2013-10-24 21:34:00,47.7,37.6,30.14,North,0,0.0,0.0,68,0.00,OVC,,0.00,WeatherDisplay:10.37,2013-10-25 01:34:00,
2013-10-24 21:39:00,47.5,37.4,30.15,NNE,22,0.0,0.0,68,0.00,OVC,,0.00,WeatherDisplay:10.37,2013-10-25 01:39:00,
2013-10-24 21:44:00,47.3,37.6,30.15,NNE,22,0.0,0.0,69,0.00,OVC,,0.00,WeatherDisplay:10.37,2013-10-25 01:44:00,
2013-10-24 21:49:00,47.1,37.5,30.15,NNE,22,0.0,0.0,69,0.00,OVC,,0.00,WeatherDisplay:10.37,2013-10-25 01:49:00,
2013-10-24 21:54:00,46.9,37.3,30.15,NNE,22,0.0,0.0,69,0.00,OVC,,0.00,WeatherDisplay:10.37,2013-10-25 01:54:00,
2013-10-24 21:59:00,46.8,37.5,30.15,NNE,22,0.0,0.0,70,0.00,OVC,,0.00,WeatherDisplay:10.37,2013-10-25 01:59:00,
2013-10-24 22:04:00,46.6,37.3,30.15,NNE,22,0.0,0.0,70,0.00,OVC,,0.00,WeatherDisplay:10.37,2013-10-25 02:04:00,
2013-10-24 22:09:00,46.4,37.5,30.15,NNE,22,0.0,0.0,71,0.00,OVC,,0.00,WeatherDisplay:10.37,2013-10-25 02:09:00,
2013-10-24 22:15:00,46.2,37.3,30.15,NNE,22,0.0,0.0,71,0.00,OVC,,0.00,WeatherDisplay:10.37,2013-10-25 02:15:00,
2013-10-24 22:20:00,46.0,37.2,30.15,NNE,22,0.0,0.0,71,0.00,OVC,,0.00,WeatherDisplay:10.37,2013-10-25 02:20:00,
2013-10-24 22:25:00,45.9,37.3,30.15,NNE,22,0.0,0.0,72,0.00,OVC,,0.00,WeatherDisplay:10.37,2013-10-25 02:25:00,
2013-10-24 22:30:00,45.7,36.8,30.16,NNE,22,0.0,0.0,71,0.00,OVC,,0.00,WeatherDisplay:10.37,2013-10-25 02:30:00,
2013-10-24 22:35:00,45.0,36.1,30.16,NNE,22,0.0,0.0,71,0.00,OVC,,0.00,WeatherDisplay:10.37,2013-10-25 02:35:00,
2013-10-24 22:40:00,44.4,36.0,30.16,NNE,22,0.0,0.0,72,0.00,OVC,,0.00,WeatherDisplay:10.37,2013-10-25 02:40:00,
2013-10-24 22:45:00,44.2,36.1,30.16,NNE,22,0.0,0.0,73,0.00,OVC,,0.00,WeatherDisplay:10.37,2013-10-25 02:45:00,
2013-10-24 22:50:00,44.1,36.0,30.16,NNE,22,0.0,0.0,73,0.00,OVC,,0.00,WeatherDisplay:10.37,2013-10-25 02:50:00,
2013-10-24 22:55:00,43.9,36.1,30.16,NNE,22,0.0,0.0,74,0.00,OVC,,0.00,WeatherDisplay:10.37,2013-10-25 02:55:00,
2013-10-24 23:00:00,43.9,36.5,30.16,NNE,22,0.0,0.0,75,0.00,OVC,,0.00,WeatherDisplay:10.37,2013-10-25 03:00:00,
2013-10-24 23:05:00,43.7,36.0,30.16,NNE,22,0.0,0.0,74,0.00,OVC,,0.00,WeatherDisplay:10.37,2013-10-25 03:05:00,
2013-10-24 23:10:00,43.5,36.1,30.16,NNE,22,0.0,0.0,75,0.00,OVC,,0.00,WeatherDisplay:10.37,2013-10-25 03:10:00,
2013-10-24 23:15:00,43.5,36.1,30.16,NNE,22,0.0,0.0,75,0.00,OVC,,0.00,WeatherDisplay:10.37,2013-10-25 03:15:00,
2013-10-24 23:20:00,43.3,36.3,30.16,NNE,22,0.0,0.0,76,0.00,OVC,,0.00,WeatherDisplay:10.37,2013-10-25 03:20:00,
2013-10-24 23:25:00,43.3,36.3,30.16,NNE,22,0.0,0.0,76,0.00,OVC,,0.00,WeatherDisplay:10.37,2013-10-25 03:25:00,
2013-10-24 23:31:00,43.3,36.3,30.16,NNE,22,0.0,0.0,76,0.00,OVC,,0.00,WeatherDisplay:10.37,2013-10-25 03:31:00,
2013-10-24 23:36:00,43.3,36.6,30.16,NNE,22,0.0,0.0,77,0.00,OVC,,0.00,WeatherDisplay:10.37,2013-10-25 03:36:00,
2013-10-24 23:41:00,43.3,36.6,30.16,NNE,22,0.0,0.0,77,0.00,OVC,,0.00,WeatherDisplay:10.37,2013-10-25 03:41:00,
2013-10-24 23:46:00,43.2,36.4,30.17,NNE,22,0.0,0.0,77,0.00,OVC,,0.00,WeatherDisplay:10.37,2013-10-25 03:46:00,
2013-10-24 23:51:00,43.2,36.4,30.16,NNE,22,0.0,0.0,77,0.00,OVC,,0.00,WeatherDisplay:10.37,2013-10-25 03:51:00,
2013-10-24 23:56:00,42.6,35.9,30.17,NNE,22,0.0,0.0,77,0.00,OVC,,0.00,WeatherDisplay:10.37,2013-10-25 03:56:00,